カタログに戻る

STARLINK-3910

運用中通信VLEO
NORAD 52586·PAYLOAD·🇺🇸 United States

打ち上げ May 13, 2022 から Vandenberg Space Force Base

Loading…

次のパス (今後24時間)

TLE

最新Source: CelesTrak SupGP

元期: Sep 14, 2026, 21:26 UTC

1 52586C 22051BC  26257.89354167 -.00033181  00000+0 -94963-3 0  2579
2 52586  53.1595 343.9596 0001131  77.9109 300.7810 15.35405877    19

AllMySatでSTARLINK-3910をリアルタイム追跡

Download on the App Store